Regional Weather Roundup
Issued by NWS Raleigh/Durham, NC

Home | Current Version | Previous Version | Text Only | Print | Product List | Glossary On
Versions: 1 2 3 4 5 6 7 8 9 10 11 12 13 14 15 16 17 18 19 20 21 22 23 24 25 26 27
000
ASUS42 KRAH 271310
RWRRAH
NORTH CAROLINA WEATHER ROUNDUP
NATIONAL WEATHER SERVICE RALEIGH NC
900 AM EDT SAT AUG 27 2016

NOTE: "FAIR" INDICATES FEW OR NO CLOUDS BELOW 12,000 FEET WITH NO
SIGNIFICANT WEATHER AND/OR OBSTRUCTIONS TO VISIBILITY.

NCZ001-053-055-056-065-067-271400-
WESTERN NORTH CAROLINA

CITY           SKY/WX    TMP DP  RH WIND       PRES   REMARKS
ASHEVILLE      SUNNY     72  66  81 CALM      30.23R
JEFFERSON      NOT AVBL
MORGANTON      SUNNY     74  70  88 CALM      30.22R
HICKORY        SUNNY     76  72  87 CALM      30.16R
RUTHERFORDTON    N/A     77  72  83 CALM      30.16S
MOUNT AIRY     SUNNY     77  73  86 CALM      30.20R
BOONE          SUNNY     65  64  97 CALM      30.29S
$$

NCZ021-022-025-041-071-084-088-271400-
CENTRAL NORTH CAROLINA

CITY           SKY/WX    TMP DP  RH WIND       PRES   REMARKS
CHARLOTTE      SUNNY     82  71  69 N3        30.14R
GREENSBORO     MOSUNNY   80  73  79 NE8       30.15R
WINSTON-SALEM  SUNNY     80  70  71 NE5       30.17R
RALEIGH-DURHAM MOSUNNY   82  74  76 W3        30.12S
FORT BRAGG     SUNNY     81  71  70 CALM      30.11R
FAYETTEVILLE   SUNNY     82  71  69 SW3       30.11S
BURLINGTON     SUNNY     82  74  76 N5        30.13S
LAURINBURG     NOT AVBL
$$

NCZ011-015-027-028-043-044-047-080-103-271400-
NORTHEASTERN NORTH CAROLINA

CITY           SKY/WX    TMP DP  RH WIND       PRES   REMARKS
ROCKY MT-WILSO SUNNY     81  75  82 VRB3      30.11S
GREENVILLE     SUNNY     81  73  78 CALM      30.13R
WASHINGTON     SUNNY     80  73  78 W3        30.12R
ELIZABETH CITY SUNNY     82  75  79 W5        30.12R
MANTEO         SUNNY     81  75  82 W6        30.11S
CAPE HATTERAS  SUNNY     84  74  71 NW6       30.11S
$$

NCZ078-087-090-091-093-098-101-271400-
SOUTHEASTERN NORTH CAROLINA

CITY           SKY/WX    TMP DP  RH WIND       PRES   REMARKS
LUMBERTON      SUNNY     81  72  74 CALM      30.10S
GOLDSBORO      NOT AVBL
KINSTON        SUNNY     81  72  74 W3        30.12S
KENANSVILLE    SUNNY     81  73  78 CALM      30.12R
NEW BERN       SUNNY     82  73  74 NW3       30.13R
CHERRY POINT   SUNNY     82  74  76 CALM      30.12S
BEAUFORT       SUNNY     83  74  74 N5        30.11R
JACKSONVILLE   SUNNY     81  72  74 CALM      30.11R
WILMINGTON     SUNNY     81  73  76 NE3       30.10S
$$





USA.gov is the U.S. government's official web portal to all federal, state and local government web resources and services.